Location: Lecco
(45.8566°N, 9.3977°E)
Time: 22:40:21
(UTC+02:00)

S-56A Canister/Altair - Pass Details

Date: 28 July 2019
Orbit: 633 x 2499 km, 38.9° (Epoch: 25 August)

Event Time Altitude Azimuth Distance (km) Brightness Sun altitude
Rises 08:02:53 0° 256° (WSW) 4,703 10.9 19.3°
Reaches altitude 10° 08:05:38 10° 253° (WSW) 3,941 10.6 19.8°
Maximum altitude 08:16:27 64° 176° (S) 2,329 10.3 21.7°
Drops below altitude 10° 08:30:55 10° 100° (E) 5,140 13.5 24.2°
Sets 08:35:05 0° 98° (E) 6,177 13.5 24.9°
